Regional Weather Roundup
Issued by NWS New Orleans/Baton Rouge, LA

Home | Current Version | Previous Version | Text Only | Print | Product List | Glossary On
Versions: 1 2 3 4 5 6 7 8 9 10 11 12 13 14 15 16 17 18 19 20 21 22 23 24 25 26 27 28 29 30 31 32 33 34 35 36 37 38 39 40 41 42 43 44 45 46 47 48 49 50
017
ASUS44 KLIX 211205
RWRLIX
NEW ORLEANS REGIONAL WEATHER ROUNDUP
NATIONAL WEATHER SERVICE NEW ORLEANS LA
700 AM CDT THU AUG 21 2014

NOTE: "FAIR" INDICATES FEW OR NO CLOUDS BELOW 12,000 FEET WITH NO
      SIGNIFICANT WEATHER AND/OR OBSTRUCTIONS TO VISIBILITY.
      SKY/WX - SKY CONDITION AND SIGNIFICANT WEATHER.
      TMP - AIR TEMPERATURE.     DP    - DEWPOINT TEMPERATURE.
      RH  - RELATIVE HUMIDITY.   PRES  - PRESSURE.
      HI  - HEAT INDEX.          WCI   - WIND CHILL INDEX.

*  THESE STATIONS ARE NOT NWS OR FAA STATIONS AND ARE NOT UNDER
   NWS QUALITY CONTROL.

LAZ038-040-048-061>063-065>067-069-211300-
SOUTHEAST LOUISIANA

CITY           SKY/WX    TMP DP  RH WIND       PRES   REMARKS
N.O. AUDUBON     N/A     79  78  99 MISG        N/A
6HR MIN TEMP:  78; 6HR MAX TEMP:  81;

N.O. INTL ARPT MOCLDY    77  74  90 CALM      30.12R
6HR MIN TEMP:  77; 6HR MAX TEMP:  79;

N.O. LAKEFRONT CLEAR     79  76  90 CALM      30.12R
6HR MIN TEMP:  79; 6HR MAX TEMP:  80;

N.O. DOWNTOWN*   N/A     82  73  74 CALM      30.12R
6HR MIN TEMP:  81; 6HR MAX TEMP:  82;

SLIDELL        PTCLDY    74  71  91 CALM      30.12R
6HR MIN TEMP:  73; 6HR MAX TEMP:  76;

BATON ROUGE    PTCLDY    74  72  93 NE3       30.12R
6HR MIN TEMP:  74; 6HR MAX TEMP:  75;

BOOTHVILLE     MOCLDY    83  76  79 CALM      30.13R
6HR MIN TEMP:  82; 6HR MAX TEMP:  84;

BELLE CHASSE   PTCLDY    75  72  90 CALM      30.11R
6HR MIN TEMP:  74; 6HR MAX TEMP:  77;

BOGALUSA*      CLOUDY    74  70  89 CALM      30.14R
6HR MIN TEMP:  73; 6HR MAX TEMP:  76;

GALLIANO*      NOT AVBL
NEW ROADS*       N/A     75  74  97 CALM      30.11R
6HR MIN TEMP:  74; 6HR MAX TEMP:  77;

GONZALES*        N/A     73  73  99 CALM      30.11R
6HR MIN TEMP:  72; 6HR MAX TEMP:  74;

HAMMOND*       PTCLDY    73  70  88 CALM      30.14R
HOUMA*         PTCLDY    73  72  94 CALM      30.11R
PORT FOURCHON* SUNNY     84  77  79 CALM      30.13R

$$

MSZ070-080>082-211300-
SOUTHERN MISSISSIPPI

CITY           SKY/WX    TMP DP  RH WIND       PRES   REMARKS
MCCOMB         PTCLDY    72  69  90 CALM      30.14R
6HR MIN TEMP:  71; 6HR MAX TEMP:  75;

GULFPORT       CLEAR     78  76  93 CALM      30.12R
6HR MIN TEMP:  77; 6HR MAX TEMP:  81;

BILOXI         CLEAR     79  76  91 CALM      30.13R
6HR MIN TEMP:  79; 6HR MAX TEMP:  83;

PASCAGOULA     PTCLDY    74  73  97 CALM      30.13R
6HR MIN TEMP:  73; 6HR MAX TEMP:  75;

STENNIS ARPT*  CLEAR    N/A N/A N/A CALM      30.13  FOG

$$

COASTAL OBSERVATIONS
LAKE AND NEARSHORE STATIONS

STATION/POSITION TIME  TEMP    WIND        PRES    WAVE
                       AIR SEA DIR/SP/G            HT/PER
                 (UTC) (F)     (DEG/KT/KT) (MB)    (FT/S)
PASCAGOULA       1200   80     340/  4/  6 1019.7
WAVELAND YACHT   1200   79     300/  2/  3 1019.4
GRAND ISLE       1200   84 88  240/  2/  3 1020.3
SOUTHWEST PASS   1200   85 88  190/  2/  3 1020.1
NEW CANAL        1200   80 83   CALM  /  1 1020.1
SHELL BEACH      1200   83 82  260/  1/  3 1019.7

OFFSHORE STATIONS

STATION/POSITION TIME  TEMP    WIND        PRES    WAVE
                       AIR SEA DIR/SP/G            HT/PER
                 (UTC) (F)     (DEG/KT/KT) (MB)    (FT/S)
64 S DAUPHIN ISL 1150   85 87  230/  4/  4 1020.5

$$




USA.gov is the U.S. government's official web portal to all federal, state and local government web resources and services.